sat.trackr.live / text

‹ back to catalog

STARLINK-32520

NORAD 62021 · 2024-213P

PAYLOAD ACTIVE UNKNOWN

§ Identity

Operator
Country
US
Launch date
2024-11-18
Launch site
AFWTR
Launch vehicle
Mass (kg)
RCS (m²)

Purposes: comms

External: N2YO · Heavens-Above · Gunter

§ Orbital elements

Epoch: 2026-09-21T17:18:13.789152Z

Period
93.85 min
Inclination
53.1608°
Eccentricity
0.0001250
Mean motion
15.34407558 rev/d
Perigee alt
461.8 km
Apogee alt
463.5 km
Semi-major
6,840.8 km
B*
4.7508e-4
RAAN
335.7688°
Arg perigee
72.6446°
Mean anomaly
287.4694°
Rev number
10,319

§ Raw data

STARLINK-325201 62021U 24213P   26264.72099293  .00015713  00000+0  47508-3 0  99972 62021  53.1608 335.7688 0001250  72.6446 287.4694 15.34407558103199

JSON: /api/v1/satellites/62021 · /tle

For live sub-satellite position, see the globe view (requires WebGL).

§ Visibility from observer

Set your observer location to see the next 7 days of passes ≥ 10°. The values pass through the URL so the page stays shareable.

No JS? Fill the form by hand. The geolocation button needs JavaScript.